Home > Weather > Sevilla > Past weeks

Flag for Spain Weather for the Past 2 Weeks in Sevilla, Spain

Now
70 °F

Scattered clouds.


Feels Like: 70 °F
Forecast: 60 / 70 °F
Wind: 2 mph from North

Location: Sevilla / San Pablo

Current Time: May 5, 2016 at 2:36:44 PM

Latest Report: May 5, 2016 at 2:00 PM


Visibility: N/A

Pressure: 29.86 "Hg

Humidity: 40%

Dew Point: 45 °F

Location of SevillaLocation

Historic Weather in Sevilla — Graph

°F

Sevilla Temperature Yesterday

Maximum temperature yesterday: 84 °F (at 3:30 PM)
Minimum temperature yesterday: 57 °F (at 4:30 AM)
Average temperature yesterday: 71 °F

High & Low Weather Summary for the Past Weeks

 TemperatureHumidityPressure
High88 °F (May 3, 5:30 PM)100% (Apr 21, 6:30 AM)30.21 "Hg (Apr 21, 6:30 AM)
Low48 °F (Apr 21, 6:30 AM)8% (May 2, 5:00 PM)29.83 "Hg (Apr 26, 6:00 PM)
Average67 °F55%30.00 "Hg
* Reported Apr 20 1:00 PM — May 5 1:30 PM, Sevilla, Weather by CustomWeather, © 2016

Note: Actual official high and low records may vary slightly from our data, if they occured in-between our weather recording intervals... More about our weather records

Advertising

Sevilla Weather History for the Previous 24 Hours

Scroll right to see more
 ConditionsComfort  
Time TempWeatherWind HumidityBarometerVisibility
1:30 PM
Thu, May 5
68 °FScattered clouds.2 mph46%29.86 "HgN/A
1:00 PM66 °FPassing clouds.No wind49%29.89 "HgN/A
12:30 PM66 °FPassing clouds.1 mph49%29.89 "HgN/A
12:00 PM66 °FSunny.2 mph56%29.86 "Hg10 mi
11:30 AM64 °FSunny.2 mph64%29.86 "Hg10 mi
11:00 AM64 °FPassing clouds.7 mph68%29.86 "HgN/A
10:30 AM64 °FPassing clouds.2 mph73%29.86 "HgN/A
10:00 AM63 °FLight rain. Clear.3 mph77%29.86 "HgN/A
9:30 AM63 °FPassing clouds.3 mph77%29.86 "HgN/A
9:00 AM63 °FPassing clouds.3 mph77%29.86 "HgN/A
8:30 AM63 °FSunny.8 mph73%29.86 "Hg10 mi
8:00 AM61 °FClear.9 mph77%29.86 "Hg10 mi
7:30 AM61 °FLight rain. Clear.5 mph77%29.86 "HgN/A
7:00 AM61 °FClear.7 mph83%29.86 "Hg10 mi
6:30 AM63 °FLight rain. Clear.3 mph77%29.86 "HgN/A
6:00 AM63 °FLight rain. Passing clouds.5 mph73%29.86 "HgN/A
5:30 AM63 °FLight rain. Passing clouds.1 mph73%29.89 "HgN/A
5:00 AM63 °FLight rain. Passing clouds.3 mph77%29.89 "HgN/A
4:30 AM63 °FLight rain. Passing clouds.8 mph77%29.89 "HgN/A
4:00 AM66 °FClear.8 mph56%29.89 "Hg10 mi
3:30 AM66 °FClear.1 mph64%29.89 "Hg10 mi
1:00 AM66 °FClear.2 mph52%29.95 "Hg10 mi
12:30 AM68 °FClear.2 mph46%29.95 "Hg10 mi
12:00 AM68 °FClear.1 mph40%29.95 "Hg10 mi
11:30 PM
Wed, May 4
70 °FClear.3 mph38%29.98 "Hg10 mi
11:00 PM70 °FClear.2 mph35%29.98 "Hg10 mi
10:30 PM70 °FClear.1 mph35%29.98 "Hg10 mi
10:00 PM72 °FPassing clouds.7 mph33%29.98 "HgN/A
9:30 PM72 °FSunny.9 mph33%29.95 "Hg10 mi
9:00 PM73 °FSunny.7 mph27%29.95 "Hg10 mi
8:30 PM75 °FPassing clouds.6 mph27%29.95 "HgN/A
8:00 PM75 °FPassing clouds.5 mph24%29.95 "HgN/A
7:30 PM77 °FSunny.9 mph22%29.95 "Hg10 mi
7:00 PM79 °FPassing clouds.13 mph21%29.95 "HgN/A
6:30 PM79 °FPassing clouds.14 mph20%29.95 "HgN/A
6:00 PM82 °FPassing clouds.13 mph17%29.95 "HgN/A
5:30 PM82 °FPassing clouds.9 mph19%29.92 "HgN/A
5:00 PM84 °FPassing clouds.7 mph16%29.92 "HgN/A
4:30 PM84 °FPassing clouds.7 mph15%29.92 "HgN/A
4:00 PM84 °FPassing clouds.3 mph15%29.92 "HgN/A
3:30 PM84 °FSunny.2 mph14%29.92 "Hg10 mi
3:00 PM82 °FPassing clouds.3 mph15%29.95 "HgN/A
2:30 PM82 °FSunny.3 mph17%29.95 "Hg10 mi
2:00 PM82 °FSunny.1 mph17%29.98 "Hg10 mi
Weather by CustomWeather, © 2016

See weather overviewHow to use our weather pages